User: anonymous   Login
Location: ????
(30.2663°N, 31.2484°E)
Time: 00:09:11
(UTC+00:00)
Language:

Meteor 1-22 - Orbit

View from above orbital plane
View from above orbital plane
View from above satellite
View from above satellite

Ground track
Ground track

The orbit data is extracted from the following two-line orbital elements,

1  8293U 75087A   24114.86896570  .00000623  00000-0  32089-3 0  9996
2  8293  81.2595  31.2553 0076001  39.0513 321.6111 14.12583201502580
Epoch (UTC): 23 April 2024 20:51:18
Eccentricity: 0.0076001
inclination: 81.2595°
perigee height: 795 km
apogee height: 905 km
right ascension of ascending node: 31.2553°
argument of perigee: 39.0513°
revolutions per day: 14.12583201
mean anomaly at epoch: 321.6111°
orbit number at epoch: 50258

The dashed part of the orbit path shows where the satellite is in the earth's shadow,  

DLR